GLOBALSTAR M087 [+]

Last updated on Fri Dec 29 2023 00:02:57 GMT+0000 (Coordinated Universal Time)

1 52888U 22064A 23361.64765425 -.00000086 00000+0 81075-4 0 9998 2 52888 51.9762 90.0118 0008771 286.9937 73.0002 13.37561091 74435

Satellite not in orbit

GLOBALSTAR M087 [+]